ARN600 CYHZ-CYFC

Flight info

Callsign ARN600
Flight time 0h 32m
Altitude 16000
Route EMLOB
Aircraft RJ1H/M-WX/S

Departure

Time 2026-05-05 12:07
Airport Halifax / Stanfield International Airport (CYHZ)

Arrival

Time 2026-05-05 12:40
Airport Fredericton International Airport (CYFC)
Time Latitude Longitude Altitude Speed Heading
2026-05-05 11:56 44.88549 -63.51340 451 ft 0 kts 269°
2026-05-05 11:57 44.88549 -63.51339 451 ft 0 kts 269°
2026-05-05 11:57 44.88549 -63.51338 451 ft 0 kts 269°
2026-05-05 11:57 44.88549 -63.51337 451 ft 0 kts 269°
2026-05-05 11:58 44.88549 -63.51336 451 ft 0 kts 269°
2026-05-05 11:58 44.88549 -63.51335 451 ft 0 kts 269°
2026-05-05 11:59 44.88549 -63.51334 451 ft 0 kts 269°
2026-05-05 11:59 44.88550 -63.51316 451 ft 3 kts 269°
2026-05-05 11:59 44.88550 -63.51290 451 ft 3 kts 269°
2026-05-05 11:59 44.88554 -63.51265 451 ft 3 kts 234°
2026-05-05 12:00 44.88568 -63.51251 451 ft 1 kts 194°
2026-05-05 12:00 44.88569 -63.51250 451 ft 0 kts 194°
2026-05-05 12:06 44.88545 -63.51259 451 ft 9 kts 193°
2026-05-05 12:06 44.88497 -63.51253 451 ft 7 kts 172°
2026-05-05 12:06 44.88434 -63.51232 451 ft 12 kts 152°
2026-05-05 12:06 44.88377 -63.51132 451 ft 15 kts 124°
2026-05-05 12:07 44.88318 -63.51011 449 ft 9 kts 138°
2026-05-05 12:07 44.88238 -63.51072 449 ft 45 kts 214°
2026-05-05 12:07 44.87737 -63.51564 469 ft 124 kts 216°
2026-05-05 12:07 44.86968 -63.52309 1115 ft 129 kts 215°
2026-05-05 12:08 44.86225 -63.52934 2160 ft 122 kts 223°
2026-05-05 12:08 44.85686 -63.53821 2862 ft 125 kts 265°
2026-05-05 12:08 44.86092 -63.55057 3459 ft 161 kts 296°
2026-05-05 12:08 44.86726 -63.56484 4309 ft 181 kts 294°
2026-05-05 12:09 44.87421 -63.58056 5347 ft 197 kts 296°
2026-05-05 12:09 44.88190 -63.59732 6453 ft 209 kts 298°
2026-05-05 12:09 44.89013 -63.61475 7538 ft 217 kts 299°
2026-05-05 12:09 44.89705 -63.63366 8682 ft 220 kts 290°
2026-05-05 12:10 44.90503 -63.65255 9768 ft 228 kts 300°
2026-05-05 12:10 44.91375 -63.67203 10605 ft 242 kts 298°
2026-05-05 12:10 44.92278 -63.69311 11329 ft 260 kts 298°
2026-05-05 12:10 44.93231 -63.71545 11977 ft 277 kts 298°
2026-05-05 12:11 44.94273 -63.73967 12577 ft 292 kts 299°
2026-05-05 12:11 44.95359 -63.76467 13124 ft 304 kts 299°
2026-05-05 12:11 44.96457 -63.78994 13814 ft 308 kts 299°
2026-05-05 12:11 44.97581 -63.81579 14429 ft 310 kts 299°
2026-05-05 12:12 44.98714 -63.84192 14988 ft 313 kts 299°
2026-05-05 12:12 44.99872 -63.86862 15558 ft 316 kts 299°
2026-05-05 12:12 45.01032 -63.89510 16100 ft 319 kts 300°
2026-05-05 12:12 45.02212 -63.92186 16628 ft 322 kts 299°
2026-05-05 12:13 45.03396 -63.94896 17175 ft 325 kts 299°
2026-05-05 12:13 45.04589 -63.97628 17730 ft 328 kts 299°
2026-05-05 12:13 45.05773 -64.00350 18248 ft 331 kts 299°
2026-05-05 12:13 45.06978 -64.03126 18735 ft 332 kts 299°
2026-05-05 12:14 45.08184 -64.05917 19219 ft 333 kts 299°
2026-05-05 12:14 45.09393 -64.08726 19675 ft 335 kts 299°
2026-05-05 12:14 45.10614 -64.11575 19856 ft 342 kts 299°
2026-05-05 12:14 45.11824 -64.14404 19906 ft 330 kts 299°
2026-05-05 12:15 45.13017 -64.17188 19926 ft 330 kts 299°
2026-05-05 12:15 45.14212 -64.19979 19943 ft 334 kts 299°
2026-05-05 12:15 45.15424 -64.22793 19941 ft 335 kts 299°
2026-05-05 12:15 45.16635 -64.25603 19931 ft 334 kts 299°
2026-05-05 12:16 45.17848 -64.28412 19936 ft 335 kts 299°
2026-05-05 12:16 45.19063 -64.31229 19936 ft 335 kts 299°
2026-05-05 12:16 45.20280 -64.34050 19936 ft 335 kts 299°
2026-05-05 12:16 45.21496 -64.36869 19936 ft 335 kts 299°
2026-05-05 12:17 45.22712 -64.39693 19922 ft 335 kts 299°
2026-05-05 12:17 45.23929 -64.42519 19932 ft 336 kts 299°
2026-05-05 12:17 45.25147 -64.45347 19938 ft 337 kts 299°
2026-05-05 12:17 45.26365 -64.48179 19933 ft 336 kts 299°
2026-05-05 12:18 45.27574 -64.51031 19926 ft 339 kts 298°
2026-05-05 12:18 45.28788 -64.53906 19926 ft 339 kts 298°
2026-05-05 12:18 45.30012 -64.56766 19928 ft 339 kts 298°
2026-05-05 12:18 45.31232 -64.59638 19928 ft 339 kts 298°
2026-05-05 12:19 45.32444 -64.62504 19917 ft 339 kts 298°
2026-05-05 12:19 45.33663 -64.65366 19924 ft 337 kts 298°
2026-05-05 12:19 45.34862 -64.68224 19925 ft 337 kts 298°
2026-05-05 12:19 45.36079 -64.71078 19926 ft 338 kts 298°
2026-05-05 12:20 45.37282 -64.73945 19915 ft 338 kts 298°
2026-05-05 12:20 45.38497 -64.76818 19922 ft 338 kts 298°
2026-05-05 12:20 45.39708 -64.79683 19937 ft 338 kts 298°
2026-05-05 12:20 45.40912 -64.82575 19926 ft 340 kts 298°
2026-05-05 12:21 45.42133 -64.85459 19924 ft 340 kts 298°
2026-05-05 12:21 45.43342 -64.88337 19926 ft 339 kts 298°
2026-05-05 12:21 45.44549 -64.91226 19921 ft 339 kts 298°
2026-05-05 12:21 45.45766 -64.94107 19916 ft 340 kts 298°
2026-05-05 12:22 45.46969 -64.97001 19926 ft 340 kts 298°
2026-05-05 12:22 45.48189 -64.99890 19911 ft 340 kts 298°
2026-05-05 12:22 45.49384 -65.02760 19503 ft 336 kts 298°
2026-05-05 12:22 45.50581 -65.05645 18697 ft 338 kts 298°
2026-05-05 12:23 45.51784 -65.08516 17979 ft 338 kts 298°
2026-05-05 12:23 45.52975 -65.11381 17485 ft 335 kts 297°
2026-05-05 12:23 45.54167 -65.14228 17014 ft 332 kts 298°
2026-05-05 12:23 45.55342 -65.17047 16611 ft 329 kts 297°
2026-05-05 12:24 45.56510 -65.19846 16177 ft 327 kts 298°
2026-05-05 12:24 45.57662 -65.22578 15759 ft 324 kts 298°
2026-05-05 12:24 45.58827 -65.25352 15330 ft 322 kts 297°
2026-05-05 12:24 45.59955 -65.28096 14917 ft 319 kts 297°
2026-05-05 12:25 45.61073 -65.30830 14513 ft 317 kts 297°
2026-05-05 12:25 45.62193 -65.33531 14099 ft 315 kts 297°
2026-05-05 12:25 45.63292 -65.36225 13679 ft 312 kts 296°
2026-05-05 12:25 45.64242 -65.38990 13261 ft 308 kts 290°
2026-05-05 12:26 45.65073 -65.41805 12889 ft 307 kts 290°
2026-05-05 12:26 45.65907 -65.44590 12566 ft 305 kts 290°
2026-05-05 12:26 45.66751 -65.47371 12214 ft 304 kts 290°
2026-05-05 12:26 45.67584 -65.50134 11865 ft 302 kts 291°
2026-05-05 12:27 45.68445 -65.52870 11509 ft 301 kts 291°
2026-05-05 12:27 45.69319 -65.55586 11186 ft 300 kts 292°
2026-05-05 12:27 45.70182 -65.58249 10831 ft 298 kts 292°
2026-05-05 12:27 45.71062 -65.60975 10493 ft 297 kts 292°
2026-05-05 12:28 45.71917 -65.63655 10154 ft 295 kts 292°
2026-05-05 12:28 45.72753 -65.66282 9825 ft 293 kts 292°
2026-05-05 12:28 45.73585 -65.68888 9456 ft 282 kts 291°
2026-05-05 12:28 45.74369 -65.71393 9111 ft 270 kts 291°
2026-05-05 12:29 45.75120 -65.73798 8804 ft 260 kts 291°
2026-05-05 12:29 45.75853 -65.76145 8523 ft 257 kts 291°
2026-05-05 12:29 45.76572 -65.78463 8198 ft 254 kts 290°
2026-05-05 12:29 45.77302 -65.80776 7927 ft 255 kts 291°
2026-05-05 12:30 45.78033 -65.83082 7654 ft 254 kts 291°
2026-05-05 12:30 45.78768 -65.85384 7377 ft 253 kts 291°
2026-05-05 12:30 45.79498 -65.87674 7115 ft 253 kts 290°
2026-05-05 12:30 45.79983 -65.89226 6941 ft 252 kts 290°
2026-05-05 12:31 45.80692 -65.91519 6657 ft 252 kts 290°
2026-05-05 12:31 45.81402 -65.93812 6397 ft 251 kts 290°
2026-05-05 12:31 45.82111 -65.96101 6128 ft 251 kts 290°
2026-05-05 12:31 45.82826 -65.98377 5853 ft 250 kts 290°
2026-05-05 12:32 45.83529 -66.00617 5570 ft 250 kts 290°
2026-05-05 12:32 45.84254 -66.02914 5283 ft 249 kts 290°
2026-05-05 12:32 45.84962 -66.05146 5009 ft 249 kts 290°
2026-05-05 12:32 45.85688 -66.07429 4745 ft 248 kts 289°
2026-05-05 12:33 45.86387 -66.09660 4483 ft 249 kts 289°
2026-05-05 12:33 45.87104 -66.11918 4201 ft 248 kts 289°
2026-05-05 12:33 45.87816 -66.14178 3920 ft 249 kts 289°
2026-05-05 12:33 45.88531 -66.16438 3640 ft 249 kts 289°
2026-05-05 12:34 45.89243 -66.18696 3375 ft 248 kts 289°
2026-05-05 12:34 45.89943 -66.20957 3107 ft 247 kts 288°
2026-05-05 12:34 45.90636 -66.23204 2875 ft 244 kts 288°
2026-05-05 12:34 45.91321 -66.25421 2698 ft 241 kts 288°
2026-05-05 12:35 45.92003 -66.27608 2526 ft 238 kts 288°
2026-05-05 12:35 45.92641 -66.29770 2471 ft 231 kts 280°
2026-05-05 12:35 45.92566 -66.31941 2441 ft 213 kts 244°
2026-05-05 12:35 45.91862 -66.33712 2442 ft 197 kts 242°
2026-05-05 12:36 45.91325 -66.35440 2469 ft 180 kts 247°
2026-05-05 12:36 45.90927 -66.36958 2484 ft 144 kts 248°
2026-05-05 12:36 45.90608 -66.38231 2421 ft 133 kts 248°
2026-05-05 12:36 45.90291 -66.39479 2304 ft 130 kts 248°
2026-05-05 12:37 45.89998 -66.40613 2141 ft 115 kts 247°
2026-05-05 12:37 45.89729 -66.41663 1985 ft 107 kts 247°
2026-05-05 12:37 45.89480 -66.42627 1873 ft 101 kts 246°
2026-05-05 12:37 45.89231 -66.43575 1756 ft 101 kts 247°
2026-05-05 12:38 45.88984 -66.44523 1578 ft 105 kts 248°
2026-05-05 12:38 45.88782 -66.45584 1260 ft 113 kts 248°
2026-05-05 12:38 45.88504 -66.46661 975 ft 118 kts 243°
2026-05-05 12:38 45.88185 -66.47781 756 ft 122 kts 245°
2026-05-05 12:39 45.87931 -66.48939 599 ft 124 kts 248°
2026-05-05 12:39 45.87598 -66.50107 404 ft 127 kts 245°
2026-05-05 12:39 45.87318 -66.51278 254 ft 121 kts 246°
2026-05-05 12:39 45.87028 -66.52385 95 ft 117 kts 247°
2026-05-05 12:40 45.86770 -66.53397 63 ft 90 kts 250°
2026-05-05 12:40 45.86645 -66.53881 66 ft 18 kts 252°
2026-05-05 12:40 45.86629 -66.53985 67 ft 3 kts 164°
2026-05-05 12:40 45.86641 -66.53914 59 ft 17 kts 69°
2026-05-05 12:41 45.86698 -66.53687 63 ft 26 kts 71°
2026-05-05 12:41 45.86756 -66.53451 60 ft 26 kts 70°
2026-05-05 12:41 45.86821 -66.53198 64 ft 27 kts 70°
2026-05-05 12:41 45.86917 -66.52982 64 ft 27 kts 13°
2026-05-05 12:42 45.87086 -66.52954 63 ft 17 kts
2026-05-05 12:42 45.87157 -66.52988 66 ft 10 kts 320°
2026-05-05 12:42 45.87198 -66.53009 64 ft 6 kts 34°
2026-05-05 12:42 45.87208 -66.52968 64 ft 1 kts 86°
2026-05-05 12:43 45.87208 -66.52963 65 ft 0 kts 86°